Weather History for Indianapolis, IN

Change the Weather History Date:

Thursday, July 11, 2013

  Actual Average Record
Temperature  
Mean Temperature 72 °F 76 °F  
Max Temperature 80 °F 85 °F 104 °F (1936)
Min Temperature 64 °F 66 °F 52 °F (1945)
Degree Days  
Heating Degree Days 0 0  
Month to date heating degree days 0 0  
Since 1 June heating degree days 9 16  
Since 1 July heating degree days 0 0  
Cooling Degree Days 7 11  
Month to date cooling degree days 92 118  
Year to date cooling degree days 447 428  
Since 1 June cooling degree days 318 344  
Growing Degree Days 22 (Base 50)    
Moisture  
Dew Point 55 °F    
Average Humidity 58    
Maximum Humidity 73    
Minimum Humidity 42    
Precipitation  
Precipitation 0.00 in 0.16 in 2.49 in (2006)
Month to date precipitation 1.24 1.73  
Year to date precipitation 26.73 23.38  
Snow  
Snow 0.00 in 0.00 in 0.00 in ()
Month to date snowfall 0.0 0.0  
Since 1 June snowfall 0.0 0.0  
Since 1 July snowfall 0.0 0.0  
Snow Depth 0.00 in    
Sea Level Pressure  
Sea Level Pressure 30.00 in    
Wind  
Wind Speed 11 mph (NNE)    
Max Wind Speed 21 mph    
Max Gust Speed 26 mph    
Visibility 10 miles    
Events      
T = Trace of Precipitation, MM = Missing Value Source: NWS Daily Summary

Daily Weather History Graph

Daily Weather History Graph

Search for Another Location

Airport:

Trip Planner

Search our weather history database for the weather conditions in past years. The results will help you decide how hot, cold, wet, or windy it might be!

Date:

Astronomy

Jul. 11, 2013 Rise Set
Actual Time 6:27 AM EDT 9:14 PM EDT
Civil Twilight 5:55 AM EDT 9:45 PM EDT
Nautical Twilight 5:15 AM EDT 10:25 PM EDT
Astronomical Twilight 4:29 AM EDT 11:11 PM EDT
Moon 9:44 AM EDT (7/11) 10:55 PM EDT (7/11)
Length of Visible Light 15h 50m
Length of Day
14h 46m
Waxing Crescent, 10% of the Moon is Illuminated
Jul 11
Waxing Crescent
Jul 15
First Quarter
Jul 22
Full
Jul 29
Last Quarter
Aug 6
New

Hourly Weather History & Observations

Time (EDT) Temp. Dew Point Humidity Pressure Visibility Wind Dir Wind Speed Gust Speed Precip Events Conditions
12:54 AM 73.0 °F 60.1 °F 64% 29.94 in 10.0 mi North 10.4 mph - N/A   Overcast
1:54 AM 71.1 °F 55.9 °F 59% 29.96 in 10.0 mi North 8.1 mph - N/A   Mostly Cloudy
2:54 AM 69.1 °F 55.9 °F 63% 29.96 in 10.0 mi North 9.2 mph - N/A   Scattered Clouds
3:54 AM 68.0 °F 55.0 °F 63% 29.96 in 10.0 mi North 9.2 mph - N/A   Partly Cloudy
4:54 AM 66.0 °F 54.0 °F 65% 29.96 in 10.0 mi North 8.1 mph - N/A   Scattered Clouds
5:54 AM 66.0 °F 55.0 °F 68% 29.98 in 10.0 mi North 9.2 mph - N/A   Mostly Cloudy
6:54 AM 64.9 °F 55.0 °F 70% 30.00 in 10.0 mi North 8.1 mph - N/A   Scattered Clouds
7:54 AM 66.9 °F 55.0 °F 66% 30.01 in 10.0 mi NNE 9.2 mph - N/A   Partly Cloudy
8:54 AM 69.1 °F 55.9 °F 63% 30.01 in 10.0 mi NNE 9.2 mph - N/A   Clear
9:54 AM 72.0 °F 55.9 °F 57% 30.02 in 10.0 mi NE 15.0 mph - N/A   Clear
10:54 AM 75.0 °F 55.9 °F 51% 30.02 in 10.0 mi NNE 17.3 mph - N/A   Partly Cloudy
11:54 AM 75.9 °F 55.0 °F 48% 30.02 in 10.0 mi NE 16.1 mph - N/A   Partly Cloudy
12:54 PM 78.1 °F 53.1 °F 42% 30.03 in 10.0 mi NNE 19.6 mph 23.0 mph N/A   Scattered Clouds
1:54 PM 79.0 °F 54.0 °F 42% 30.03 in 10.0 mi NNE 13.8 mph 20.7 mph N/A   Scattered Clouds
2:54 PM 77.0 °F 53.1 °F 43% 30.02 in 10.0 mi North 13.8 mph - N/A   Mostly Cloudy
3:54 PM 78.1 °F 53.1 °F 42% 30.03 in 10.0 mi North 15.0 mph 24.2 mph N/A   Mostly Cloudy
4:54 PM 79.0 °F 54.0 °F 42% 30.02 in 10.0 mi NE 9.2 mph - N/A   Scattered Clouds
5:54 PM 78.1 °F 54.0 °F 43% 30.02 in 10.0 mi NNE 12.7 mph 21.9 mph N/A   Scattered Clouds
6:54 PM 77.0 °F 54.0 °F 45% 30.02 in 10.0 mi North 11.5 mph - N/A   Scattered Clouds
7:54 PM 75.9 °F 52.0 °F 43% 30.01 in 10.0 mi NE 12.7 mph - N/A   Partly Cloudy
8:54 PM 73.9 °F 53.1 °F 48% 30.01 in 10.0 mi NNE 10.4 mph - N/A   Partly Cloudy
9:54 PM 71.1 °F 54.0 °F 55% 30.01 in 10.0 mi North 4.6 mph - N/A   Clear
10:54 PM 69.1 °F 55.0 °F 61% 30.02 in 10.0 mi North 5.8 mph - N/A   Clear
11:54 PM 68.0 °F 57.0 °F 68% 30.03 in 10.0 mi North 8.1 mph - N/A   Clear